This is the latest recevied weather packets stored in our database for station/object WX7EM. If no packets are shown the sender has not sent any weather packets the latest 10 day(s).
| Time | Temp. | Humidity | Pressure | Rain* | Wind** | Luminosity | Snow |
|---|---|---|---|---|---|---|---|
| 1778122570 | 15° C | 77% | 1019.4 hPa | 0 mm | - | 15 W/m² | - |
| 1778122267 | 15.56° C | 77% | 1019.2 hPa | 0 mm | - | 19 W/m² | - |
| 1778121965 | 16.11° C | 75% | 1019.4 hPa | 0 mm | - | 25 W/m² | - |
| 1778121662 | 16.67° C | 74% | 1019.2 hPa | 0 mm | - | 37 W/m² | - |
| 1778121357 | 17.22° C | 72% | 1019.4 hPa | 0 mm | - | 46 W/m² | - |
| 1778121055 | 17.22° C | 71% | 1019.2 hPa | 0 mm | - | 55 W/m² | - |
| 1778120751 | 17.22° C | 71% | 1019.4 hPa | 0 mm | - | 63 W/m² | - |
| 1778120446 | 17.22° C | 71% | 1019.2 hPa | 0 mm | - | 71 W/m² | - |
| 1778120143 | 17.78° C | 70% | 1019.2 hPa | 0 mm | - | 77 W/m² | - |
| 1778119839 | 17.78° C | 69% | 1019.2 hPa | 0 mm | - | 83 W/m² | - |
| 1778119537 | 18.89° C | 68% | 1019.2 hPa | 0 mm | - | 84 W/m² | - |
| 1778119233 | 18.33° C | 69% | 1019.1 hPa | 0 mm | - | 89 W/m² | - |
| 1778118932 | 18.33° C | 69% | 1019.1 hPa | 0 mm | - | 97 W/m² | - |
| 1778118629 | 18.33° C | 69% | 1019.1 hPa | 0 mm | - | 91 W/m² | - |
| 1778118326 | 18.89° C | 68% | 1019.1 hPa | 0 mm | - | 109 W/m² | - |
| 1778118021 | 18.89° C | 68% | 1019.2 hPa | 0 mm | - | 119 W/m² | - |
| 1778117718 | 18.89° C | 66% | 1019.2 hPa | 0 mm | - | 130 W/m² | - |
| 1778117416 | 19.44° C | 65% | 1019 hPa | 0 mm | - | 140 W/m² | - |
| 1778117113 | 20° C | 65% | 1019.2 hPa | 0 mm | - | 153 W/m² | - |
| 1778116809 | 19.44° C | 67% | 1019 hPa | 0 mm | - | 159 W/m² | - |
| 1778116506 | 19.44° C | 67% | 1019 hPa | 0 mm | - | 166 W/m² | - |
| 1778116202 | 20° C | 65% | 1019 hPa | 0 mm | - | 181 W/m² | - |
| 1778115896 | 20° C | 65% | 1019.2 hPa | 0 mm | - | 188 W/m² | - |
| 1778115593 | 20.56° C | 64% | 1019.1 hPa | 0 mm | - | 190 W/m² | - |
| 1778115291 | 20.56° C | 65% | 1019.2 hPa | 0 mm | - | 214 W/m² | - |
* Rain latest hour (hover to see other rain measurements)
** Current wind speed in m/s (hover to see current wind gust speed)